Regional Weather Roundup
Issued by NWS

Home | Current Version | Previous Version | Text Only | Print | Product List | Glossary On
Versions: 1 2 3 4 5 6 7 8 9 10 11 12 13 14 15 16 17 18 19 20 21 22 23 24 25 26 27 28 29 30 31 32 33 34 35 36 37 38 39 40 41 42 43 44 45 46 47 48 49 50
675
ASUS45 KBOU 052107
RWRCO

WEATHER ROUNDUP FOR COLORADO
NATIONAL WEATHER SERVICE DENVER/BOULDER CO
300 PM MDT THU MAY 05 2016

NOTE: "FAIR" INDICATES FEW OR NO CLOUDS BELOW 12000 FEET WITH NO
SIGNIFICANT WEATHER AND/OR OBSTRUCTIONS TO VISIBILITY.

COZ001>005-013-030-031-052200-
...NORTHWEST COLORADO...

CITY           SKY/WX    TMP DP  RH WIND       PRES   REMARKS
CRAIG          FAIR      78  28  16 N7        30.08F
HAYDEN         FAIR      72  25  17 CALM      30.12F
MEEKER         FAIR      77  23  13 MISG      30.08F
MOUNT WERNER   NOT AVBL
STEAMBOAT SPGS FAIR      73  27  18 SW9       30.13F
WALDEN         FAIR      64  19  17 N7        30.24F
$$

COZ006>008-011-052200-
...WEST CENTRAL VALLEYS...

CITY           SKY/WX    TMP DP  RH WIND       PRES   REMARKS
GRAND JUNCTION FAIR      82  28  14 SE7G21    29.96F
MONTROSE       FAIR      80  26  13 S10       30.06F
EAGLE          SUNNY     75  21  13 SW5       30.12F
RIFLE          FAIR      81  23  11 CALM      30.03F
DELTA          NOT AVBL
NUCLA          NOT AVBL
$$

COZ017>023-064>068-052200-
...SOUTHWEST COLORADO...

CITY           SKY/WX    TMP DP  RH WIND       PRES   REMARKS
DURANGO        FAIR      73  27  18 S6        30.14F
CORTEZ         FAIR      81  27  14 SE12G21   30.05F
PAGOSA SPRINGS FAIR      69  17  13 CALM      30.22F
TELLURIDE      CLOUDY    64  21  19 S10       30.28F
WOLF CREEK PAS FAIR      46  21  36 SW16G23   30.50F
$$

COZ009-010-012-014-032>034-037-058>063-052200-
...CENTRAL COLORADO...

CITY           SKY/WX    TMP DP  RH WIND       PRES   REMARKS
ASPEN          FAIR      70  17  13 SW7       30.18F
BUENA VISTA    FAIR      70  17  13 NE9       30.21F
COPPER MTN     NOT AVBL
BERTHOUD PASS  PTSUNNY   41  32  70 SE5       30.51S
COTTONWOOD PAS FAIR      64  14  14 SE13G21   30.33F
GUNNISON       FAIR      70  21  16 E8        30.21F
KREMMLING      FAIR      73  12   9 N6        30.17F
LEADVILLE      FAIR      61  14  16 S10       30.31F
MONARCH PASS   CLOUDY    48  23  37 MISG      30.57F
SALIDA         FAIR      73  20  13 S6        30.26F
SUNLIGHT       FAIR      59  19  21 W3        30.41F
WILKERSON PASS FAIR      59  19  21 SW6       30.46F
$$

COZ069>075-052200-
...SAN LUIS VALLEY/SANGRE DE CRISTO MOUNTAINS...

CITY           SKY/WX    TMP DP  RH WIND       PRES   REMARKS
ALAMOSA        FAIR      72  20  14 VRB3      30.20F
LA VETA PASS   PTSUNNY   55  23  28 E7        30.38F
SAGUACHE       FAIR      70  25  18 E6        30.23F
$$

COZ035-036-038>040-052200-
...NORTHERN COLORADO FRONT RANGE...

CITY           SKY/WX    TMP DP  RH WIND       PRES   REMARKS
DENVER INTL AP PTSUNNY   79  31  17 E8        30.07F
DMNS CITY PARK   N/A     79  32  17 SE5G13    30.05S
AURORA         FAIR      79  31  17 E7        30.08F
FRONT RANGE AP NOT AVBL
ERIE MUNI ARPT FAIR      79  30  16 E9        30.04F
BOULDER MUN AP FAIR      81  32  17 E7        30.04F
CENTENNIAL     PTSUNNY   78  21  12 NE6       30.08F
BROOMFIELD     PTSUNNY   79  30  17 SE5       30.08F
FORT COLLINS   FAIR      81  39  22 SE12      30.03F
LONGMONT       FAIR      83  35  18 E7G16     30.06S
$$

COZ041-046-047-076>085-087-088-052200-
...PIKES PEAK/PALMER DIVIDE AND SOUTHERN FOOTHILLS...

CITY           SKY/WX    TMP DP  RH WIND       PRES   REMARKS
COLO. SPRINGS  FAIR      78  25  14 SW12      30.12F
A. F. ACADEMY  PTSUNNY   75  27  16 VRB3      30.12F
SCHRIEVER AFB  NOT AVBL
ELLICOTT       FAIR     N/A N/A N/A SE8G17    30.12F
FALCON         NOT AVBL
FORT CARSON    FAIR      79  32  18 SE8G24    30.09F
LIMON          FAIR      77  34  21 S9        30.09F
MONUMENT HILL  FAIR      70  32  24 E12G21    30.18F
TRINIDAD       FAIR      79  24  13 E7G17     30.10F
$$

COZ042>045-048>051-090-091-052200-
...NORTHEAST COLORADO...

CITY           SKY/WX    TMP DP  RH WIND       PRES   REMARKS
GREELEY ARPT   FAIR      81  34  18 SE7       30.04F
AKRON          FAIR      80  36  20 S12       30.04F
BURLINGTON     FAIR      82  35  18 S17       30.06F
WRAY           NOT AVBL
STERLING       FAIR      81  43  26 SW7       30.00F
HOLYOKE        NOT AVBL
FORT MORGAN    FAIR      82  32  16 CALM      30.04F
$$

COZ086-089-092>099-052200-
...SOUTHEAST COLORADO...

CITY           SKY/WX    TMP DP  RH WIND       PRES   REMARKS
PUEBLO         FAIR      84  33  16 E8        30.03F
LA JUNTA       FAIR      82  38  20 VRB6      30.03F
LAMAR          FAIR      84  41  21 SE9G16    30.00F
SPRINGFIELD      N/A     81  38  21 CALM      30.04F
$$




USA.gov is the U.S. government's official web portal to all federal, state and local government web resources and services.